• In Netherlands
  • List of Countries
  • For 7 days
  • Water Temperature
  • Satellite Maps
  • Weather Map
  • Weather Widgets
  • user-avatar
    Login

    Hourly Weather Klagenfurt

    Today, 22 February, Wednesday

    Time Temperature Precipitation Wind Pressure Humidity
    00:00 +3°C° 0 mm 1 mps 689 mmHg 93%
    01:00 +2°C° 0 mm 1 mps 688 mmHg 94%
    02:00 +2°C° 0 mm 1 mps 688 mmHg 94%
    03:00 +2°C° 0 mm 1 mps 688 mmHg 94%
    04:00 +2°C° 0 mm 1 mps 688 mmHg 94%
    05:00 +2°C° 0 mm 1 mps 688 mmHg 94%
    06:00 +2°C° 0 mm 1 mps 688 mmHg 94%
    07:00 +2°C° 0 mm 1 mps 688 mmHg 94%
    08:00 +3°C° 0 mm 1 mps 688 mmHg 90%
    09:00 +5°C° 0 mm 1 mps 688 mmHg 87%
    10:00 +6°C° 0 mm 1 mps 688 mmHg 84%
    11:00 +6°C° 0 mm 2 mps 688 mmHg 83%
    12:00 +7°C° 0 mm 2 mps 688 mmHg 81%
    13:00 +7°C° 0 mm 2 mps 688 mmHg 80%
    14:00 +7°C° 0 mm 2 mps 688 mmHg 82%
    15:00 +6°C° 0 mm 2 mps 687 mmHg 85%
    16:00 +6°C° 0 mm 2 mps 687 mmHg 87%
    17:00 +5°C° 0 mm 2 mps 687 mmHg 90%
    18:00 +3°C° 0 mm 2 mps 687 mmHg 93%
    19:00 +2°C° 0 mm 2 mps 687 mmHg 96%
    20:00 +2°C° 0 mm 2 mps 687 mmHg 96%
    21:00 +2°C° 0 mm 2 mps 687 mmHg 96%
    22:00 +1°C° 0 mm 2 mps 687 mmHg 96%
    23:00 +1°C° 0 mm 2 mps 687 mmHg 96%

    Tomorrow, 23 February, Thursday

    Time Temperature Precipitation Wind Pressure Humidity
    00:00 +1°C° 0 mm 2 mps 687 mmHg 96%
    01:00 +1°C° 0 mm 2 mps 687 mmHg 96%
    02:00 +1°C° 0 mm 2 mps 686 mmHg 96%
    03:00 +1°C° 0 mm 2 mps 686 mmHg 96%
    04:00 +1°C° 0 mm 2 mps 686 mmHg 96%
    05:00 +1°C° 0 mm 2 mps 686 mmHg 95%
    06:00 +1°C° 0 mm 2 mps 686 mmHg 95%
    07:00 +2°C° 0 mm 1 mps 686 mmHg 95%
    08:00 +2°C° 0 mm 2 mps 686 mmHg 92%
    09:00 +4°C° 0 mm 2 mps 686 mmHg 88%
    10:00 +5°C° 0 mm 2 mps 687 mmHg 85%
    11:00 +6°C° 0 mm 2 mps 686 mmHg 84%
    12:00 +5°C° 0 mm 3 mps 686 mmHg 83%
    13:00 +7°C° 0 mm 3 mps 686 mmHg 82%
    14:00 +7°C° 0 mm 3 mps 685 mmHg 84%
    15:00 +5°C° 0 mm 3 mps 685 mmHg 85%
    16:00 +5°C° 0 mm 3 mps 684 mmHg 87%
    17:00 +4°C° 0 mm 3 mps 684 mmHg 90%
    18:00 +4°C° 0 mm 2 mps 684 mmHg 92%
    19:00 +4°C° 0 mm 2 mps 683 mmHg 94%
    20:00 +4°C° 0.1 mm 2 mps 683 mmHg 94%
    21:00 +4°C° 0.1 mm 2 mps 683 mmHg 94%
    22:00 +3°C° 0.1 mm 3 mps 683 mmHg 94%
    23:00 +3°C° 0.1 mm 3 mps 683 mmHg 94%

    Day after tomorrow, 24 February, Friday

    Time Temperature Precipitation Wind Pressure Humidity
    00:00 +3°C° 0.1 mm 3 mps 682 mmHg 95%
    01:00 +3°C° 0.1 mm 3 mps 682 mmHg 95%
    02:00 +3°C° 0.1 mm 3 mps 682 mmHg 95%
    03:00 +4°C° 0.1 mm 2 mps 682 mmHg 95%
    04:00 +3°C° 0.1 mm 2 mps 681 mmHg 95%
    05:00 +3°C° 0.1 mm 2 mps 681 mmHg 95%
    06:00 +3°C° 0.1 mm 2 mps 681 mmHg 95%
    07:00 +3°C° 0.1 mm 2 mps 681 mmHg 95%
    08:00 +4°C° 0.3 mm 2 mps 682 mmHg 94%
    09:00 +5°C° 0.3 mm 1 mps 682 mmHg 93%
    10:00 +6°C° 0.3 mm 1 mps 682 mmHg 91%
    11:00 +6°C° 0.7 mm 1 mps 682 mmHg 91%
    12:00 +6°C° 0.7 mm 1 mps 682 mmHg 91%
    13:00 +6°C° 0.7 mm 1 mps 682 mmHg 91%
    14:00 +6°C° 1.8 mm 1 mps 682 mmHg 92%
    15:00 +5°C° 1.8 mm 1 mps 682 mmHg 94%
    16:00 +5°C° 1.8 mm 1 mps 682 mmHg 95%
    17:00 +3°C° 2.7 mm 2 mps 683 mmHg 95%
    18:00 +2°C° 2.7 mm 2 mps 683 mmHg 95%
    19:00 +1°C° 2.7 mm 2 mps 684 mmHg 95%
    20:00 +1°C° 1.8 mm 2 mps 684 mmHg 95%
    21:00 +1°C° 1.8 mm 2 mps 685 mmHg 96%
    22:00 -1°C° 1.8 mm 2 mps 686 mmHg 96%
    23:00 -1°C° 0.6 mm 2 mps 686 mmHg 96%

    25 February, Saturday

    Time Temperature Precipitation Wind Pressure Humidity
    00:00 -1°C° 0.6 mm 2 mps 687 mmHg 96%
    01:00 -1°C° 0.6 mm 2 mps 687 mmHg 96%
    02:00 -2°C° 0.1 mm 2 mps 688 mmHg 95%
    03:00 -2°C° 0.1 mm 2 mps 688 mmHg 95%
    04:00 -3°C° 0.1 mm 2 mps 688 mmHg 95%
    05:00 -3°C° 0 mm 2 mps 689 mmHg 95%
    06:00 -4°C° 0 mm 2 mps 689 mmHg 95%
    07:00 -5°C° 0 mm 2 mps 690 mmHg 95%
    08:00 -4°C° 0 mm 2 mps 690 mmHg 92%
    09:00 -2°C° 0 mm 2 mps 691 mmHg 90%
    10:00 -1°C° 0 mm 2 mps 692 mmHg 87%
    11:00 +1°C° 0 mm 2 mps 692 mmHg 85%
    12:00 +1°C° 0 mm 2 mps 692 mmHg 84%
    13:00 +2°C° 0 mm 2 mps 692 mmHg 82%
    14:00 +2°C° 0 mm 2 mps 692 mmHg 83%
    15:00 +3°C° 0 mm 1 mps 692 mmHg 84%
    16:00 +3°C° 0 mm 1 mps 692 mmHg 86%
    17:00 0°C° 0 mm 1 mps 692 mmHg 89%
    18:00 -2°C° 0 mm 1 mps 692 mmHg 92%
    19:00 -4°C° 0 mm 1 mps 692 mmHg 95%
    20:00 -6°C° 0 mm 1 mps 692 mmHg 94%
    21:00 -6°C° 0 mm 1 mps 692 mmHg 94%
    22:00 -6°C° 0 mm 1 mps 693 mmHg 94%
    23:00 -6°C° 0 mm 1 mps 692 mmHg 94%

    26 February, Sunday

    Time Temperature Precipitation Wind Pressure Humidity
    00:00 -6°C° 0 mm 1 mps 692 mmHg 94%
    01:00 -6°C° 0 mm 1 mps 692 mmHg 93%
    02:00 -6°C° 0 mm 1 mps 692 mmHg 93%
    03:00 -6°C° 0 mm 1 mps 691 mmHg 92%
    04:00 -6°C° 0 mm 1 mps 691 mmHg 91%
    05:00 -6°C° 0 mm 1 mps 691 mmHg 89%
    06:00 -4°C° 0 mm 1 mps 691 mmHg 87%
    07:00 -4°C° 0 mm 1 mps 691 mmHg 85%
    08:00 -2°C° 0 mm 1 mps 691 mmHg 82%
    09:00 0°C° 0 mm 1 mps 691 mmHg 79%
    10:00 +3°C° 0 mm 1 mps 692 mmHg 76%
    11:00 +4°C° 0 mm 1 mps 692 mmHg 74%
    12:00 +5°C° 0 mm 1 mps 692 mmHg 73%
    13:00 +6°C° 0 mm 1 mps 691 mmHg 72%
    14:00 +5°C° 0 mm 1 mps 691 mmHg 76%
    15:00 +5°C° 0 mm 1 mps 691 mmHg 80%
    16:00 +4°C° 0 mm 0 mps 690 mmHg 84%
    17:00 +2°C° 0 mm 0 mps 690 mmHg 87%
    18:00 +1°C° 0 mm 0 mps 690 mmHg 89%
    19:00 -1°C° 0 mm 0 mps 689 mmHg 92%
    20:00 -2°C° 0 mm 0 mps 689 mmHg 91%
    21:00 -2°C° 0 mm 0 mps 689 mmHg 90%
    22:00 -3°C° 0 mm 0 mps 689 mmHg 89%
    23:00 -3°C° 0 mm 0 mps 689 mmHg 89%

    27 February, Monday

    Time Temperature Precipitation Wind Pressure Humidity
    00:00 -3°C° 0 mm 0 mps 689 mmHg 88%
    01:00 -3°C° 0 mm 0 mps 689 mmHg 88%
    02:00 -4°C° 0 mm 0 mps 688 mmHg 87%
    03:00 -4°C° 0 mm 0 mps 688 mmHg 86%
    04:00 -4°C° 0 mm 0 mps 688 mmHg 85%
    05:00 -4°C° 0 mm 0 mps 688 mmHg 85%
    06:00 -4°C° 0 mm 0 mps 688 mmHg 85%
    07:00 -4°C° 0 mm 0 mps 688 mmHg 85%
    08:00 -1°C° 0 mm 0 mps 689 mmHg 80%
    09:00 +2°C° 0 mm 0 mps 689 mmHg 75%
    10:00 +5°C° 0 mm 0 mps 690 mmHg 70%
    11:00 +7°C° 0 mm 1 mps 690 mmHg 69%
    12:00 +7°C° 0 mm 1 mps 689 mmHg 69%
    13:00 +8°C° 0 mm 1 mps 689 mmHg 68%
    14:00 +8°C° 0 mm 1 mps 689 mmHg 73%
    15:00 +7°C° 0 mm 1 mps 688 mmHg 78%
    16:00 +7°C° 0 mm 1 mps 688 mmHg 83%
    17:00 +5°C° 0 mm 1 mps 687 mmHg 87%
    18:00 +3°C° 0 mm 1 mps 687 mmHg 91%
    19:00 +1°C° 0 mm 1 mps 686 mmHg 94%
    20:00 +1°C° 0 mm 1 mps 686 mmHg 94%
    21:00 0°C° 0 mm 1 mps 686 mmHg 94%
    22:00 0°C° 0 mm 1 mps 686 mmHg 95%
    23:00 0°C° 0 mm 1 mps 686 mmHg 94%
    Show more